GW6661 Weather Reports


time (UTC)temp
F
wind
direction
speed
knots
gust
knots
rain 1hr
in
rain 24hr
in
rain mn
in
humidity
%
barometer
mb
20260510190503 85 260 1.7 2.6 0.00 0.00 0.01 33 1013.3
20260510190003 85 178 2.6 2.6 0.00 0.00 0.01 28 1013.1
20260510185503 86 225 1.7 2.6 0.00 0.00 0.01 31 1013.3
20260510185003 85 160 0.0 1.7 0.00 0.00 0.01 31 1013.1
20260510184503 83 234 2.6 3.5 0.00 0.00 0.01 32 1013.4
20260510184003 84 42 2.6 4.3 0.00 0.00 0.01 31 1013.3
20260510183503 84 55 1.7 1.7 0.00 0.00 0.01 31 1013.4
20260510183022 84 68 0.0 1.7 0.00 0.00 0.01 32 1013.4
20260510182503 84 13 0.9 5.2 0.00 0.00 0.01 30 1013.5
20260510182003 85 102 0.9 1.7 0.00 0.00 0.01 32 1013.5
20260510181522 85 27 0.9 2.6 0.00 0.00 0.01 30 1013.6
20260510181022 85 247 0.0 1.7 0.00 0.00 0.01 29 1013.8
20260510180503 84 269 0.0 1.7 0.00 0.00 0.01 35 1013.6
20260510180003 83 338 2.6 2.6 0.00 0.00 0.01 32 1013.7
20260510175503 82 129 1.7 2.6 0.00 0.00 0.01 34 1013.6
20260510175003 82 112 0.9 1.7 0.00 0.00 0.01 35 1013.8
20260510174503 82 55 1.7 4.3 0.00 0.00 0.01 33 1014.0
20260510174002 82 231 1.7 2.6 0.00 0.00 0.01 37 1013.8
20260510173503 81 233 0.9 2.6 0.00 0.00 0.01 33 1014.0
20260510173003 81 113 1.7 3.5 0.00 0.00 0.01 37 1014.2
20260510172502 82 57 0.9 1.7 0.00 0.00 0.01 36 1014.1
20260510172003 82 323 1.7 2.6 0.00 0.00 0.01 32 1014.2
20260510171502 81 218 1.7 2.6 0.00 0.00 0.01 33 1014.0
20260510171002 81 333 2.6 3.5 0.00 0.00 0.01 35 1014.2
20260510170521 80 88 0.9 2.6 0.00 0.00 0.01 34 1014.2
20260510170002 81 35 2.6 6.1 0.00 0.00 0.01 35 1014.0
20260510165502 81 52 1.7 2.6 0.00 0.00 0.01 38 1014.2
20260510165002 81 38 2.6 3.5 0.00 0.00 0.01 37 1014.2
20260510164502 81 36 0.9 2.6 0.00 0.00 0.01 37 1014.4
20260510164021 81 218 0.0 2.6 0.00 0.00 0.01 38 1014.3
20260510163521 80 254 0.0 2.6 0.00 0.00 0.01 38 1014.2
20260510163002 80 11 2.6 3.5 0.00 0.00 0.01 40 1014.2
20260510162502 80 20 1.7 3.5 0.00 0.00 0.01 35 1014.3
20260510162002 80 32 3.5 4.3 0.00 0.00 0.01 37 1014.3
20260510161502 80 24 1.7 4.3 0.00 0.00 0.01 37 1014.4
20260510161002 79 234 2.6 3.5 0.00 0.00 0.01 39 1014.6
20260510160502 79 86 1.7 3.5 0.00 0.00 0.01 40 1014.7
20260510160002 78 319 2.6 2.6 0.00 0.00 0.01 40 1014.6
20260510155502 78 14 2.6 2.6 0.00 0.00 0.01 37 1014.6
20260510155002 78 61 4.3 4.3 0.00 0.00 0.01 38 1014.8
20260510154502 79 20 4.3 4.3 0.00 0.00 0.01 37 1014.6
20260510154021 79 181 0.9 1.7 0.00 0.00 0.01 46 1014.8
20260510153502 77 303 0.0 2.6 0.00 0.00 0.01 42 1014.8
20260510153003 77 248 0.9 1.7 0.00 0.00 0.01 46 1014.7
20260510152502 77 35 2.6 4.3 0.00 0.00 0.01 42 1015.1
20260510152002 77 37 2.6 3.5 0.00 0.00 0.01 43 1015.0
20260510151502 78 59 1.7 3.5 0.00 0.00 0.01 42 1015.0
20260510151002 76 7 0.0 2.6 0.00 0.00 0.01 46 1014.9
20260510150502 76 57 1.7 2.6 0.00 0.00 0.01 47 1015.0
20260510150002 76 59 3.5 4.3 0.00 0.00 0.01 47 1014.9
20260510145502 75 65 0.0 3.5 0.00 0.00 0.01 50 1014.8
20260510145002 75 72 1.7 4.3 0.00 0.00 0.01 50 1015.0
20260510144540 75 53 6.1 6.1 0.00 0.00 0.01 50 1014.7
20260510144002 74 73 2.6 4.3 0.00 0.00 0.01 52 1014.7
20260510143502 74 49 2.6 3.5 0.00 0.00 0.01 53 1014.7
20260510143002 73 44 2.6 3.5 0.00 0.00 0.01 51 1015.0
20260510142502 73 63 4.3 6.1 0.00 0.00 0.01 53 1014.6
20260510142002 73 53 1.7 4.3 0.00 0.00 0.01 58 1014.9
20260510141502 72 61 1.7 2.6 0.00 0.00 0.01 60 1014.8
20260510141002 72 38 3.5 4.3 0.02 0.00 0.01 57 1014.8
20260510140521 72 53 6.1 7.0 0.02 0.00 0.01 57 1014.8
20260510140003 72 51 2.6 3.5 0.00 0.00 0.01 60 1014.6
20260510135503 72 56 1.7 3.5 0.00 0.00 0.01 63 1014.8
20260510135003 71 56 0.9 4.3 0.00 0.00 0.01 68 1014.9
20260510134503 70 76 1.7 3.5 0.00 0.00 0.01 71 1014.9
20260510134041 70 46 2.6 3.5 0.00 0.00 0.01 73 1014.6
20260510133503 69 69 3.5 4.3 0.00 0.00 0.01 75 1015.0
20260510133003 69 45 1.7 2.6 0.00 0.00 0.01 78 1015.1
20260510132502 68 64 2.6 3.5 0.00 0.00 0.01 79 1014.9
20260510132002 68 64 2.6 3.5 0.00 0.00 0.01 80 1015.1
20260510131502 67 39 0.9 1.7 0.00 0.00 0.01 83 1015.1
20260510131002 66 69 2.6 4.3 0.00 0.00 0.01 85 1015.0
20260510130502 65 63 1.7 2.6 0.00 0.00 0.01 89 1015.0
20260510130004 65 42 0.9 0.9 0.00 0.00 0.01 91 1014.8
20260510125504 64 52 2.6 3.5 0.00 0.00 0.01 94 1014.6
20260510125023 63 53 0.9 3.5 0.00 0.00 0.01 96 1014.6
20260510124504 62 59 0.0 0.9 0.00 0.00 0.01 97 1014.8
20260510124004 62 64 0.9 0.9 0.00 0.00 0.01 97 1014.6
20260510123504 60 85 0.0 0.9 0.00 0.00 0.01 96 1014.6
20260510123004 60 129 0.0 0.9 0.00 0.00 0.01 96 1014.7
20260510122503 59 93 0.0 0.9 0.00 0.00 0.01 97 1014.8
20260510122003 59 142 0.0 0.9 0.00 0.00 0.01 97 1015.0
20260510121503 58 60 0.0 0.9 0.00 0.00 0.01 98 1014.5
20260510121003 57 129 0.0 0.9 0.00 0.00 0.01 98 1014.7
20260510120503 57 64 0.9 1.7 0.00 0.00 0.01 98 1014.4
20260510120042 56 89 0.0 0.9 0.00 0.00 0.01 98 1014.6
20260510115504 56 76 0.0 0.0 0.00 0.00 0.01 97 1014.4
20260510115004 56 50 0.0 0.0 0.00 0.00 0.01 97 1014.4
20260510114523 55 76 0.0 0.9 0.00 0.00 0.01 97 1014.4
20260510114004 55 55 0.0 0.0 0.00 0.00 0.01 97 1014.5
20260510113504 55 50 0.0 0.9 0.00 0.00 0.01 97 1014.4
20260510113004 55 68 0.9 1.7 0.00 0.00 0.01 98 1014.3
20260510112504 55 50 0.0 0.9 0.00 0.00 0.01 97 1014.1
20260510112004 55 50 1.7 1.7 0.00 0.00 0.01 97 1013.9
20260510111523 55 52 0.9 1.7 0.00 0.00 0.01 98 1013.7
20260510111004 55 58 0.9 1.7 0.00 0.00 0.01 98 1013.7
20260510110504 54 109 0.0 0.9 0.00 0.00 0.01 98 1013.6
20260510110004 54 47 0.9 1.7 0.00 0.00 0.01 98 1013.6
20260510105504 54 44 0.9 1.7 0.00 0.00 0.01 98 1013.7
20260510105004 54 33 0.9 0.9 0.00 0.00 0.01 98 1013.6
20260510104523 54 44 0.0 0.9 0.00 0.00 0.01 98 1013.5
20260510104042 54 87 0.9 0.9 0.00 0.00 0.01 98 1013.3
20260510103503 54 64 0.9 0.9 0.00 0.00 0.01 97 1013.3
20260510103004 54 60 0.9 1.7 0.00 0.00 0.01 97 1013.4
20260510102504 54 41 1.7 1.7 0.00 0.00 0.01 98 1013.2
20260510102004 54 66 1.7 1.7 0.00 0.00 0.01 97 1013.1
20260510101523 54 76 0.0 0.9 0.00 0.00 0.01 97 1013.2
20260510101004 55 62 0.0 1.7 0.00 0.00 0.01 97 1013.1
20260510100523 55 67 0.9 1.7 0.02 0.00 0.01 97 1013.2
20260510100004 55 36 0.9 1.7 0.02 0.00 0.01 97 1012.9
20260510095523 55 62 0.0 0.9 0.00 0.00 0.00 97 1012.8
20260510095004 55 147 0.0 0.0 0.00 0.00 0.00 97 1012.7
20260510094504 55 125 0.0 0.9 0.00 0.00 0.00 97 1012.7
20260510094023 55 124 0.0 0.9 0.00 0.00 0.00 97 1012.6
20260510093523 55 66 0.0 0.0 0.00 0.00 0.00 97 1012.6
20260510093004 55 78 0.9 0.9 0.00 0.00 0.00 97 1012.5
20260510092504 55 119 0.9 1.7 0.00 0.00 0.00 97 1012.4
20260510092004 55 73 0.9 0.9 0.00 0.00 0.00 97 1012.4
20260510091504 55 40 0.9 1.7 0.00 0.00 0.00 97 1012.3
20260510091023 55 66 0.0 0.9 0.00 0.00 0.00 97 1012.2
20260510090504 55 24 0.0 1.7 0.00 0.00 0.00 97 1012.2
20260510090003 55 57 1.7 1.7 0.00 0.00 0.00 97 1012.4
20260510085541 55 39 1.7 1.7 0.00 0.00 0.00 97 1011.9
20260510085003 55 50 0.0 0.0 0.00 0.00 0.00 97 1012.0
20260510084601 55 32 0.0 0.9 0.00 0.00 0.00 97 1012.2
20260510084003 55 47 1.7 1.7 0.00 0.00 0.00 97 1011.8
20260510083504 55 38 1.7 1.7 0.00 0.00 0.00 97 1011.8
20260510083003 55 67 0.9 1.7 0.00 0.00 0.00 97 1012.1
20260510082504 56 38 0.9 1.7 0.00 0.00 0.00 97 1012.0
20260510082003 55 63 0.9 0.9 0.00 0.00 0.00 97 1012.3
20260510081504 55 66 0.0 0.0 0.00 0.00 0.00 97 1011.9
20260510081022 55 129 0.0 0.0 0.00 0.00 0.00 97 1011.8
20260510080503 55 76 0.0 0.9 0.00 0.00 0.00 97 1011.7
20260510080004 55 36 1.7 1.7 0.00 0.00 0.00 97 1011.6
20260510075503 56 47 1.7 1.7 0.00 0.00 0.00 97 1011.9
20260510075003 56 75 0.9 1.7 0.00 0.00 0.00 97 1011.8
20260510074503 56 42 0.9 1.7 0.00 0.00 0.00 97 1011.8
20260510074003 56 55 1.7 1.7 0.00 0.00 0.00 97 1011.7
20260510073504 56 49 1.7 1.7 0.00 0.00 0.00 97 1012.0
20260510073004 56 50 0.0 0.9 0.00 0.00 0.00 97 1011.9
20260510072503 56 62 0.0 0.0 0.00 0.00 0.00 97 1011.9
20260510072004 56 29 0.0 0.0 0.00 0.00 0.00 97 1011.6
20260510071503 56 60 0.0 0.9 0.00 0.00 0.00 97 1011.6
20260510071004 56 54 0.0 1.7 0.00 0.00 0.00 97 1011.5
20260510070503 56 38 0.0 0.0 0.00 0.00 0.00 97 1011.6
20260510070004 56 56 0.0 0.0 0.00 0.00 0.00 97 1011.5
20260510065503 56 21 0.0 0.9 0.00 0.00 0.00 97 1011.3
20260510065003 56 65 0.0 0.9 0.00 0.00 0.00 97 1011.5
20260510064503 56 75 0.9 0.9 0.00 0.00 0.00 97 1011.5
20260510064022 56 48 0.9 1.7 0.00 0.00 0.00 97 1011.6
20260510063503 56 54 0.9 0.9 0.00 0.00 0.00 97 1011.8
20260510063003 56 80 0.9 0.9 0.00 0.00 0.00 97 1011.9
20260510062503 57 58 0.0 0.9 0.00 0.00 0.00 97 1011.7
20260510062003 57 14 0.0 1.7 0.00 0.00 0.00 97 1011.6
20260510061504 57 173 0.0 0.0 0.00 0.00 0.00 97 1011.6
20260510061003 56 173 0.0 0.0 0.00 0.00 0.00 97 1011.8
20260510060503 56 150 0.0 0.0 0.00 0.00 0.00 97 1011.5
20260510060003 56 147 0.0 0.0 0.00 0.00 0.00 97 1011.2
20260510055503 57 63 0.9 0.9 0.00 0.00 0.00 97 1011.5
20260510055003 57 34 0.0 0.9 0.00 0.00 0.00 97 1012.0
20260510054503 57 55 0.0 0.9 0.00 0.00 0.00 97 1011.7
20260510054003 57 44 0.0 0.0 0.00 0.00 0.00 97 1011.9
20260510053503 57 113 0.0 0.9 0.02 0.00 0.00 97 1011.9
20260510053003 57 74 0.9 0.9 0.02 0.00 0.00 97 1011.8
20260510052503 57 129 0.0 0.9 0.00 0.00 0.00 97 1011.8
20260510052003 57 63 0.0 0.0 0.00 0.00 0.00 96 1011.8
20260510051503 57 78 0.0 1.7 0.00 0.00 0.00 96 1011.9
20260510051003 57 76 0.9 0.9 0.00 0.00 0.00 96 1011.8
20260510050503 57 65 0.0 0.0 0.00 0.00 0.00 96 1011.9
20260510050022 57 76 0.0 0.9 0.00 0.00 0.00 96 1011.9
20260510045503 57 66 0.0 0.9 0.00 0.00 0.00 96 1012.1
20260510045003 57 66 0.9 1.7 0.00 0.00 0.00 96 1012.2
20260510044522 57 53 0.9 1.7 0.00 0.00 0.00 96 1012.0
20260510044003 57 75 0.9 0.9 0.00 0.00 0.00 96 1011.9
20260510043503 57 80 0.9 0.9 0.00 0.00 0.00 96 1012.1
20260510043003 57 52 0.0 0.9 0.00 0.00 0.00 96 1012.2
20260510042503 57 47 0.0 0.9 0.00 0.00 0.00 96 1012.2
20260510042022 57 37 0.9 0.9 0.00 0.00 0.00 96 1012.2
20260510041504 57 31 0.9 0.9 0.00 0.00 0.00 96 1012.1
20260510041041 58 44 0.9 1.7 0.00 0.00 0.00 96 1012.0
20260510040503 58 43 0.9 0.9 0.00 0.00 0.00 96 1012.0
20260510040004 58 63 0.9 0.9 0.00 0.00 0.00 96 1012.0
20260510035503 58 69 0.0 0.9 0.00 0.00 0.03 96 1012.0
20260510035003 58 77 0.0 0.0 0.00 0.00 0.03 96 1012.2
20260510034503 58 35 0.9 0.9 0.00 0.00 0.03 96 1012.0
20260510034022 58 55 0.9 0.9 0.00 0.00 0.03 96 1012.0
20260510033522 58 48 0.9 0.9 0.00 0.00 0.03 96 1011.9
20260510033003 58 50 0.0 0.9 0.00 0.00 0.03 96 1011.9
20260510032503 58 47 0.0 0.9 0.00 0.00 0.03 96 1012.1
20260510032003 58 53 0.0 0.0 0.00 0.00 0.03 96 1012.0
20260510031503 58 129 0.0 0.0 0.00 0.00 0.03 96 1012.0
20260510031003 58 37 0.0 0.0 0.00 0.00 0.03 96 1011.8
20260510030522 59 66 0.0 0.0 0.00 0.00 0.03 96 1011.7
20260510030004 59 57 0.9 0.9 0.00 0.00 0.03 96 1011.8
20260510025503 59 69 0.0 0.9 0.00 0.00 0.03 96 1011.7
20260510025003 59 64 0.0 1.7 0.00 0.00 0.03 96 1011.7
20260510024503 59 89 0.0 0.9 0.00 0.00 0.03 96 1011.8
20260510024003 59 50 0.0 0.0 0.00 0.00 0.03 96 1011.9
20260510023522 59 76 0.0 0.9 0.00 0.00 0.03 95 1011.7
20260510023003 59 50 0.0 0.0 0.00 0.00 0.03 95 1011.7
20260510022504 59 50 0.0 0.0 0.00 0.00 0.03 95 1011.7
20260510022003 60 41 0.0 0.9 0.00 0.00 0.03 95 1011.5
20260510021503 60 39 1.7 1.7 0.00 0.00 0.03 95 1011.4
20260510021119 60 35 1.7 1.7 0.00 0.00 0.03 95 1011.7
20260510020522 60 65 0.9 1.7 0.00 0.00 0.03 95 1011.5
20260510020003 61 93 0.9 0.9 0.00 0.00 0.03 95 1011.5
20260510015522 61 129 0.0 0.0 0.00 0.00 0.03 95 1011.5
20260510015003 61 129 0.0 0.0 0.00 0.00 0.03 95 1011.1
20260510014522 61 129 0.0 0.0 0.00 0.00 0.03 95 1011.4
20260510014003 61 38 0.0 0.0 0.00 0.00 0.03 94 1011.5
20260510013522 61 50 0.0 0.9 0.00 0.00 0.03 94 1011.1
20260510013041 61 41 0.9 0.9 0.02 0.00 0.03 94 1011.0
20260510012503 61 29 0.0 0.9 0.02 0.00 0.03 94 1011.1
20260510012003 62 76 0.9 0.9 0.00 0.00 0.03 94 1010.8
20260510011503 62 174 0.0 0.0 0.00 0.00 0.03 93 1010.5
20260510011003 62 147 0.0 0.9 0.00 0.00 0.03 93 1010.5
20260510010503 62 92 0.0 0.0 0.00 0.00 0.03 93 1010.3
20260510010003 62 304 0.0 0.0 0.00 0.00 0.03 92 1010.5
20260510005503 63 103 0.0 0.0 0.00 0.00 0.03 91 1010.3
20260510005022 63 129 0.0 0.9 0.00 0.00 0.03 91 1010.2
20260510004503 63 44 0.0 0.0 0.00 0.00 0.03 90 1010.5
20260510004003 64 142 0.0 0.0 0.00 0.00 0.03 90 1010.3
20260510003522 64 130 0.0 0.9 0.00 0.00 0.03 89 1010.2
20260510003004 64 129 0.0 0.0 0.00 0.00 0.03 89 1010.2
20260510002503 65 178 0.0 0.0 0.00 0.00 0.03 89 1010.1
20260510002022 65 44 0.0 0.0 0.00 0.00 0.03 88 1010.0
20260510001522 65 44 0.0 0.0 0.00 0.00 0.03 87 1009.8
20260510001003 66 44 0.0 0.9 0.00 0.00 0.03 85 1010.0
20260510000503 66 37 0.0 0.9 0.00 0.00 0.03 85 1010.0
20260510000022 67 66 0.0 0.9 0.00 0.00 0.03 84 1010.1
20260509235503 67 142 0.0 0.0 0.00 0.00 0.03 84 1010.2
20260509235041 67 142 0.0 0.0 0.00 0.00 0.03 83 1009.9
20260509234503 68 147 0.0 0.0 0.00 0.00 0.03 81 1009.9
20260509234003 69 89 0.0 0.9 0.00 0.00 0.03 78 1009.8
20260509233503 69 55 0.0 0.0 0.00 0.00 0.03 80 1009.8
20260509233003 69 102 0.9 0.9 0.00 0.00 0.03 77 1009.7
20260509232503 70 283 0.0 0.9 0.00 0.00 0.03 78 1009.6
20260509232003 71 233 0.0 0.9 0.00 0.00 0.03 76 1009.4
20260509231503 71 326 0.0 0.0 0.00 0.00 0.03 73 1009.4
20260509231041 71 243 0.0 0.9 0.00 0.00 0.03 72 1009.2
20260509230503 72 120 0.9 1.7 0.00 0.00 0.03 72 1009.5
20260509230022 72 267 0.9 0.9 0.00 0.00 0.03 74 1009.5
20260509225522 72 261 0.0 1.7 0.00 0.00 0.03 72 1008.9
20260509225003 72 197 1.7 4.3 0.00 0.00 0.03 71 1009.3
20260509224503 73 180 0.0 1.7 0.00 0.00 0.03 71 1009.1
20260509224022 73 269 0.0 0.9 0.00 0.00 0.03 72 1009.2
20260509223503 73 321 0.0 1.7 0.00 0.00 0.03 70 1009.0
20260509223003 73 240 0.0 1.7 0.00 0.00 0.03 70 1008.9
20260509222504 73 117 1.7 2.6 0.00 0.00 0.03 68 1009.0
20260509222004 74 347 0.9 2.6 0.02 0.00 0.03 67 1008.9
20260509221504 74 188 0.0 4.3 0.00 0.00 0.02 67 1008.9
20260509221004 74 89 0.0 1.7 0.00 0.00 0.02 68 1009.0
20260509220504 74 317 0.9 1.7 0.00 0.00 0.02 68 1009.2
20260509220004 74 125 1.7 1.7 0.00 0.00 0.02 68 1009.4
20260509215523 73 181 0.9 1.7 0.00 0.00 0.02 70 1009.1
20260509215004 73 355 0.9 1.7 0.00 0.00 0.02 70 1009.2
20260509214523 73 129 0.9 2.6 0.00 0.00 0.02 68 1009.1
20260509214004 74 341 0.0 1.7 0.00 0.00 0.02 69 1009.1
20260509213504 74 164 0.0 1.7 0.00 0.00 0.02 68 1009.1
20260509213004 73 135 0.0 1.7 0.00 0.00 0.02 70 1009.3
20260509212503 73 329 0.0 1.7 0.00 0.00 0.02 68 1009.1
20260509212003 74 180 0.0 1.7 0.00 0.00 0.02 69 1009.0
20260509211503 73 159 0.0 2.6 0.00 0.00 0.02 68 1009.2
20260509211003 73 153 1.7 1.7 0.00 0.00 0.02 69 1009.2
20260509210503 73 341 0.0 0.9 0.00 0.00 0.02 69 1009.1
20260509210003 73 182 0.0 1.7 0.00 0.00 0.02 70 1009.1
20260509205503 74 211 0.9 3.5 0.00 0.00 0.02 68 1009.0
20260509205003 75 238 1.7 2.6 0.00 0.00 0.02 64 1009.0
20260509204503 76 158 0.9 1.7 0.00 0.00 0.02 64 1008.8
20260509204003 76 136 0.0 2.6 0.00 0.00 0.02 64 1009.0
20260509203522 74 210 0.9 2.6 0.00 0.00 0.02 66 1008.9
20260509203003 74 319 0.9 3.5 0.00 0.00 0.02 66 1009.2
20260509202503 74 155 1.7 1.7 0.00 0.00 0.02 66 1008.8
20260509202003 74 29 0.0 2.6 0.00 0.00 0.02 66 1009.0
20260509201503 74 157 1.7 1.7 0.00 0.00 0.02 67 1009.0
20260509201003 74 182 0.9 1.7 0.00 0.00 0.02 68 1009.0
20260509200503 73 266 0.0 3.5 0.00 0.00 0.02 70 1009.3
20260509200004 73 249 1.7 3.5 0.02 0.00 0.02 68 1009.1
20260509195503 73 127 0.0 2.6 0.02 0.00 0.02 68 1009.2
20260509195003 72 315 0.0 1.7 0.00 0.00 0.02 72 1009.3
20260509194503 72 129 0.0 0.0 0.00 0.00 0.02 73 1009.5
20260509194022 72 354 0.0 1.7 0.00 0.00 0.02 72 1009.7
20260509193522 72 98 1.7 1.7 0.00 0.00 0.02 72 1009.6
20260509193003 72 132 0.9 1.7 0.00 0.00 0.02 72 1009.6
20260509192504 72 103 0.0 0.9 0.00 0.00 0.02 73 1009.7
20260509192004 71 12 0.9 1.7 0.00 0.00 0.02 72 1009.8
20260509191504 71 168 0.9 1.7 0.00 0.00 0.02 74 1009.8
20260509191004 71 148 0.0 1.7 0.00 0.00 0.02 76 1009.9